Location: Casper
(42.8670°N, 106.3130°W)
Time: 18:07:09
(UTC-06:00)

Daily predictions for brighter satellites

Satellite Brightness Start Highest point End
(mag) Time Altitude Azimuth Time Altitude Azimuth Time Altitude Azimuth
COSMOS 2406 3.6 20:56:10 10° SSW 21:01:53 74° WNW 21:07:37 10° NNE
CZ-4B DEB 2.8 21:02:19 10° SSE 21:05:14 54° ENE 21:08:10 10° N
SAR-Lupe-1 4.3 21:03:50 10° SSE 21:07:21 56° ENE 21:10:53 10° N
Cosmos 1025 Rocket 3.4 21:04:19 10° SSE 21:08:21 44° E 21:12:26 10° NNE
Cosmos 405 3.1 21:07:34 10° N 21:11:06 63° E 21:14:36 10° SSE
SPOT 5 4.3 21:08:09 10° ESE 21:11:17 20° ENE 21:14:28 10° NNE
USA 186 3.3 21:09:44 10° SSW 21:12:39 34° W 21:15:29 10° NNW
Meteor 1-15 Rocket 4.4 21:08:43 10° N 21:14:12 54° ENE 21:19:38 10° SSE
Cosmos 1697 Rocket 4.2 21:10:00 10° N 21:14:26 23° NE 21:18:51 10° ESE
Cosmos 1666 2.9 21:11:20 10° NNW 21:15:05 72° W 21:18:48 10° S
COSMOS 2487 3.9 21:12:47 10° SSE 21:15:26 20° E 21:18:06 10° NE
Cosmos 2369 4.3 21:14:27 10° NNW 21:19:58 46° ENE 21:25:22 10° SE
ISS -2.3 21:20:23 10° W 21:23:31 40° NNW 21:26:41 10° NE
MOS 1-B Rocket 4.5 21:20:04 10° SE 21:25:41 49° ENE 21:32:06 10° N
USA 245 4.5 21:24:56 10° E 21:25:49 11° ENE 21:26:40 10° NE
Meteor 2-9 Rocket 4.3 21:21:06 10° NNW 21:26:38 82° W 21:32:18 10° S
ERS-1 Rocket 3.2 21:21:55 10° SSE 21:26:50 58° ENE 21:31:46 10° N
Cosmos 1371 Rocket 4.1 21:23:29 10° NNW 21:28:50 88° WSW 21:34:05 10° SSE
CENTAUR R/B 4.3 21:21:45 10° NW 21:28:58 38° WSW 21:36:32 10° S
OAO 2 Rocket 4.4 21:25:40 10° WSW 21:29:53 29° S 21:33:36 12° SE
Cosmos 1238 Rocket 4.2 21:23:40 10° S 21:30:26 90° E 21:36:46 10° N
Cosmos 1833 Rocket 3.5 21:26:19 10° SSE 21:31:03 29° ESE 21:35:49 10° NE
CRYOSAT 2 4.4 21:26:22 10° SSE 21:31:11 72° E 21:36:02 10° N
Cosmos 2058 Rocket 3.9 21:28:15 10° N 21:32:19 34° ENE 21:35:49 13° SE
Meteor 1-29 3.3 21:32:07 10° N 21:35:29 65° WNW 21:38:48 10° SSW
Cosmos 1437 Rocket 2.7 21:37:09 10° N 21:41:00 85° ENE 21:44:47 11° S
Cosmos 1939 Rocket 3.9 21:39:19 10° S 21:42:59 41° W 21:46:41 10° NNW
ASTEX 1 3.6 21:41:31 10° S 21:46:25 75° W 21:51:19 10° N
Cosmos 1515 3.7 21:44:33 10° S 21:48:17 62° E 21:52:04 10° NNE
Cosmos 2181 Rocket 4.1 21:44:17 10° S 21:50:30 59° E 21:56:40 10° NNE
H-2A R/B 4.1 21:48:48 11° E 21:51:27 17° ENE 21:54:18 10° NNE
Cosmos 1980 Rocket 3.3 21:58:48 10° N 22:03:52 32° NE 22:07:36 16° ESE
ARGOS 3.2 22:02:22 17° SSE 22:06:36 77° ENE 22:12:03 10° N
Tiangong 2 1.0 22:06:32 10° W 22:09:43 89° SW 22:11:33 23° E
Cosmos 2228 2.9 22:05:43 10° N 22:10:01 74° E 22:12:42 22° SSE
Cosmos 921 Rocket 3.3 22:06:14 10° NNW 22:10:40 65° WSW 22:13:52 18° S
Cosmos 2322 Rocket 4.2 22:11:35 10° N 22:15:17 17° NE 22:18:58 10° E
Cosmos 1766 4.4 22:13:26 10° NNE 22:16:50 28° ENE 22:18:02 23° ESE
Landsat 7 4.3 22:18:54 25° SE 22:21:22 48° ENE 22:25:56 10° N
H-2A R/B 2.0 22:18:39 24° SSE 22:21:35 65° ENE 22:26:38 10° N
MetOp-B 4.5 22:17:35 15° S 22:22:00 63° WSW 22:27:20 10° NNW
SL-8 Rocket 4.0 22:18:03 10° N 22:24:21 84° E 22:28:50 21° S
TELKOM 3 3.7 22:22:52 10° WNW 22:25:13 51° SSW 22:25:40 45° S
Lacrosse 5 rocket 3.7 22:27:09 10° NNW 22:30:45 22° NNE 22:34:22 10° ENE
Cosmos 2366 rocket 4.0 22:25:09 10° N 22:31:18 71° E 22:34:59 25° SSE
Meteor 1-4 Rocket 2.4 22:27:48 10° N 22:31:24 84° E 22:32:35 40° SSE
Terra 2.3 22:34:24 29° SE 22:36:23 47° ENE 22:40:57 10° N
Cosmos 1602 Rocket 3.5 22:34:31 31° SSE 22:36:27 66° E 22:40:45 10° NNE
Cosmos 2082 Rocket 2.4 22:36:15 10° SSW 22:41:54 71° WNW 22:47:35 10° NNE
Cosmos 1269 Rocket 4.1 22:41:28 27° S 22:44:12 59° ESE 22:49:26 10° NNE
Cosmos 1805 4.2 22:41:56 10° NNE 22:45:28 32° ENE 22:46:02 30° E
Cosmos 1420 Rocket 3.9 22:41:36 10° NNW 22:46:54 86° WSW 22:49:16 34° SSE
SPOT 5 3.6 22:46:35 20° SSW 22:49:06 39° W 22:53:14 10° NNW
DMSP B5D2-2 4.0 22:44:49 10° NNE 22:50:07 73° ESE 22:52:52 29° S
deb Chang Zheng 4 3.9 22:46:55 10° NNE 22:51:04 45° E 22:51:47 41° SE
Cosmos 1048 Rocket 3.9 22:48:23 28° S 22:51:07 70° ESE 22:56:18 10° NNE
Cosmos 389 Rocket 4.0 22:49:43 10° NNE 22:52:32 23° ENE 22:52:32 23° ENE
Cosmos 1758 4.3 22:49:48 10° NNE 22:53:24 31° ENE 22:53:52 30° E
Meteor 2-14 Rocket 4.4 22:50:44 10° N 22:56:50 86° E 22:59:49 32° S
Cosmos 1656 4.5 22:51:57 10° NW 22:57:04 42° WSW 22:59:55 24° SSW
Cosmos 1697 Rocket 3.0 22:53:17 10° NNW 22:58:48 59° WSW 23:01:23 31° S
Meteor 1-22 Rocket 4.2 22:53:45 10° NNW 22:59:04 74° W 23:01:39 32° S
ISS -0.9 22:58:16 10° NW 23:00:39 18° N 23:03:02 10° NE
Spot 4 4.4 23:00:45 35° ESE 23:02:09 45° ENE 23:06:45 10° N
CARTOSAT-1 3.4 23:01:11 48° SSE 23:02:22 87° E 23:06:43 10° NNW
Iridium 2 3.7 22:58:36 10° N 23:02:22 62° E 23:02:44 58° ESE
Cosmos 1452 Rocket 4.4 22:57:47 10° NW 23:02:43 41° WSW 23:05:20 24° SSW
Lacrosse 5 3.2 23:04:37 23° E 23:04:37 23° E 23:07:20 10° ENE
Cosmos 2360 4.2 23:02:11 10° NNW 23:07:57 83° ENE 23:10:05 40° SSE
SL-16 R/B 3.1 23:03:45 10° N 23:09:02 38° ENE 23:11:25 27° ESE
IGS 5A 3.4 23:09:04 54° S 23:09:58 83° WSW 23:14:09 10° NNW
USA 267 4.3 23:05:48 10° ENE 23:10:17 25° ESE 23:10:17 25° ESE
Timation 2 Rocket 4.1 23:05:32 10° SSW 23:11:54 74° WNW 23:18:03 10° NNE
Orbus 7S? 3.9 23:05:43 10° NW 23:12:25 63° NE 23:13:29 43° E
ATLAS CENTAUR R/B 2.4 23:10:52 10° NNW 23:14:08 29° NE 23:14:45 27° ENE
Cosmos 1842 3.1 23:14:10 65° SSW 23:14:43 88° W 23:18:41 10° N
Cosmos 1833 Rocket 3.8 23:09:27 10° SW 23:14:46 42° WNW 23:20:07 10° NNE
Cosmos 1271 Rocket 2.7 23:11:21 10° NNW 23:15:16 77° W 23:15:47 64° SSW
NOSS 3-1 (C) 4.4 23:10:03 10° NNW 23:17:27 60° NE 23:22:15 26° ESE
SL-24 R/B - RUBIN 2 4.5 23:13:47 12° SSW 23:20:00 88° ESE 23:26:34 10° NE
SL-19 R/B 4.0 23:15:48 10° NNE 23:21:09 86° WNW 23:23:18 37° SSW
CZ-4C R/B 3.6 23:21:17 47° ENE 23:21:17 47° ENE 23:24:43 10° N
Cosmos 1733 4.3 23:20:24 10° NNE 23:23:43 32° ENE 23:23:43 32° ENE
Cosmos 1544 3.0 23:20:21 10° NNW 23:23:58 72° W 23:24:00 72° WSW
Cosmos 1758 Rocket 3.7 23:24:51 51° E 23:24:58 51° E 23:29:13 10° NNE
H-2A R/B 2.6 23:25:55 43° SSW 23:27:00 55° W 23:31:28 10° NNW
Cosmos 2251 Rocket 3.9 23:28:23 43° ESE 23:28:52 44° ESE 23:33:58 10° NNE
Cosmos 1812 Rocket 4.4 23:25:11 10° NNW 23:29:25 43° W 23:30:39 34° SW
Nadezhda 3 Rocket 4.1 23:38:29 34° SSW 23:41:23 74° W 23:47:46 10° N
Cosmos 2098 Rocket 4.4 23:37:01 10° NNE 23:41:30 36° E 23:42:31 34° ESE
Cosmos 2239 Rocket 4.4 23:38:26 10° N 23:44:39 86° E 23:46:32 48° SSE
USA 229 DEB 4.1 23:37:45 10° NW 23:44:41 54° WSW 23:47:09 39° S
USA 229 4.1 23:37:50 10° NW 23:44:47 55° WSW 23:47:15 39° S
CZ-4 R/B 4.3 23:40:45 10° N 23:45:44 63° WNW 23:47:29 39° SW
Tiangong 2 3.8 23:43:20 10° W 23:43:45 13° W 23:43:45 13° W
Cosmos 2360 Rocket 3.5 23:41:43 10° N 23:46:46 32° NE 23:49:04 24° E
Cosmos 1953 2.4 23:42:44 10° NNW 23:46:48 68° W 23:46:52 68° WSW
Cosmos 972 Rocket 3.8 23:41:50 10° NNW 23:47:01 81° ENE 23:47:46 64° SE
Cosmos 1980 Rocket 3.0 23:42:42 10° NW 23:47:56 39° WSW 23:49:22 33° SW
NOSS 3-1 (A) 4.2 23:43:59 10° NNW 23:51:32 70° NE 23:55:37 33° SE
Cosmos 1953 Rocket 3.5 23:51:43 70° SW 23:52:07 78° W 23:56:36 10° N
Cosmos 1825 Rocket 4.0 23:51:37 48° WSW 23:52:17 54° W 23:56:33 10° N
CZ-4B R/B 3.8 23:48:25 10° N 23:53:28 65° WNW 23:55:10 41° SW
